Cedar Rapids, IA

8:52 PM CST on December 10, 2019 (GMT -0600)
The Eastern Iowa Airport

Weather History for KCID - August, 2019

Change the Weather History Date:

Friday, August 16, 2019

  Actual Average Record
Temperature  
Mean Temperature 71 °F 71 °F  
Max Temperature 81 °F 82 °F 101 °F (1913)
Min Temperature 60 °F 61 °F 48 °F (1976)
Degree Days  
Heating Degree Days 0 0  
Month to date heating degree days 0 0  
Since 1 June heating degree days 11 33  
Since 1 July heating degree days 0 4  
Cooling Degree Days 6 7  
Month to date cooling degree days 105 114  
Year to date cooling degree days 607 581  
Since 1 June cooling degree days 579 532  
Growing Degree Days 22 (Base 50)    
Moisture  
Dew Point 64 °F    
Average Humidity 77    
Maximum Humidity 100    
Minimum Humidity 54    
Precipitation  
Precipitation 0.00 in 0.16 in 2.17 in (1893)
Month to date precipitation 1.42 2.32  
Year to date precipitation 24.01 23.14  
Sea Level Pressure  
Sea Level Pressure 29.88 in    
Wind  
Wind Speed 6 mph (SW)    
Max Wind Speed 15 mph    
Max Gust Speed 21 mph    
Visibility 10 miles    
Events      
T = Trace of Precipitation, MM = Missing Value Source: NWS Daily Summary

Daily Weather History Graph

Daily Weather History Graph

Search for Another Location

Airport or City:

Astronomy

Aug. 16, 2019 Rise Set
Actual Time 6:15 AM CDT 8:05 PM CDT
Civil Twilight 5:45 AM CDT 8:35 PM CDT
Nautical Twilight 5:09 AM CDT 9:11 PM CDT
Astronomical Twilight 4:29 AM CDT 9:51 PM CDT
Moon 9:04 PM CDT (8/16) 7:07 AM CDT (8/16)
Length of Visible Light 14h 49m
Length of Day
13h 49m
Full, 99% of the Moon is Illuminated
Aug 16
Full
Aug 23
Last Quarter
Aug 30
New
Sep 5
First Quarter
Sep 13
Full

Hourly Weather History & Observations

Time (CDT) Temp. Heat Index Dew Point Humidity Pressure Visibility Wind Dir Wind Speed Gust Speed Precip Events Conditions
12:52 AM 64.0 °F - 62.1 °F 93% 29.91 in 10.0 mi SSE 4.6 mph - N/A   Clear
1:52 AM 64.0 °F - 62.1 °F 93% 29.90 in 10.0 mi SSE 3.5 mph - N/A   Clear
2:52 AM 64.0 °F - 63.0 °F 96% 29.88 in 10.0 mi ESE 3.5 mph - N/A   Overcast
3:52 AM 64.0 °F - 62.1 °F 93% 29.87 in 10.0 mi SE 4.6 mph - N/A   Mostly Cloudy
4:52 AM 64.0 °F - 63.0 °F 96% 29.87 in 10.0 mi SSE 8.1 mph - N/A   Mostly Cloudy
5:52 AM 64.0 °F - 63.0 °F 96% 29.88 in 10.0 mi South 5.8 mph - N/A   Mostly Cloudy
6:52 AM 64.0 °F - 63.0 °F 96% 29.88 in 9.0 mi South 5.8 mph - N/A   Mostly Cloudy
7:52 AM 66.0 °F - 64.9 °F 96% 29.90 in 8.0 mi SSW 6.9 mph - N/A   Overcast
8:52 AM 70.0 °F - 66.9 °F 90% 29.89 in 10.0 mi WSW 6.9 mph - N/A   Clear
9:52 AM 73.0 °F - 66.0 °F 79% 29.89 in 10.0 mi West 8.1 mph 17.3 mph N/A   Mostly Cloudy
10:52 AM 73.9 °F - 66.0 °F 76% 29.89 in 10.0 mi WNW 9.2 mph - N/A   Mostly Cloudy
11:52 AM 75.9 °F - 66.9 °F 74% 29.88 in 10.0 mi West 8.1 mph - N/A   Mostly Cloudy
12:06 PM 75.9 °F - 66.9 °F 74% 29.89 in 10.0 mi WSW 8.1 mph - N/A   Scattered Clouds
12:52 PM 77.0 °F - 66.0 °F 69% 29.88 in 10.0 mi West 11.5 mph - N/A   Clear
12:58 PM 77.0 °F - 66.0 °F 69% 29.89 in 10.0 mi WSW 9.2 mph - N/A   Mostly Cloudy
1:26 PM 77.0 °F - 64.0 °F 64% 29.89 in 10.0 mi WSW 11.5 mph - N/A   Mostly Cloudy
1:52 PM 77.0 °F - 64.9 °F 66% 29.87 in 10.0 mi WSW 10.4 mph - N/A   Scattered Clouds
2:52 PM 80.1 °F 81.9 °F 64.9 °F 60% 29.86 in 10.0 mi West 12.7 mph - N/A   Clear
3:52 PM 80.1 °F 81.2 °F 62.1 °F 54% 29.85 in 10.0 mi WSW 9.2 mph - N/A   Clear
4:52 PM 80.1 °F 81.2 °F 62.1 °F 54% 29.85 in 10.0 mi WNW 8.1 mph - N/A   Clear
5:52 PM 79.0 °F - 61.0 °F 54% 29.85 in 10.0 mi WNW 9.2 mph - N/A   Clear
6:52 PM 77.0 °F - 63.0 °F 62% 29.85 in 10.0 mi West 4.6 mph - N/A   Clear
8:52 PM 70.0 °F - 62.1 °F 76% 29.86 in 10.0 mi NW 4.6 mph - N/A   Clear
9:52 PM 64.0 °F - 61.0 °F 90% 29.88 in 10.0 mi Calm Calm - N/A   Clear
10:52 PM 64.0 °F - 61.0 °F 90% 29.88 in 10.0 mi Calm Calm - N/A   Clear
11:52 PM 61.0 °F - 60.1 °F 97% 29.90 in 10.0 mi South 3.5 mph - N/A   Clear